Location: Lafig�re
(44.4503°N, 4.0357°E)
Time: 02:09:31
(UTC+00:00)

Transit 4A - Pass Details

Date: 28 January 2021
Orbit: 866 x 979 km, 66.8° (Epoch: 24 February)

Event Time Altitude Azimuth Distance (km) Brightness Sun altitude
Rises 03:07:22 0° 325° (NW) 3,619 - -42.5°
Reaches altitude 10° 03:09:58 10° 322° (NW) 2,655 - -42.0°
Maximum altitude 03:16:01 61° 244° (WSW) 1,034 - -41.0°
Drops below altitude 10° 03:21:52 10° 165° (SSE) 2,561 - -40.0°
Sets 03:24:21 0° 162° (SSE) 3,482 - -39.6°
